Change the Weather History Date:

Friday, November 11, 2011

  Actual Average Record
Temperature  
Mean Temperature 45 °F 39 °F  
Max Temperature 61 °F 51 °F 74 °F (1999)
Min Temperature 29 °F 27 °F 4 °F (1985)
Degree Days  
Heating Degree Days 20 26  
Month to date heating degree days 318 268  
Since 1 July heating degree days 1156 1213  
Cooling Degree Days 0 0  
Month to date cooling degree days 0 0  
Year to date cooling degree days 155 222  
Moisture  
Dew Point 20 °F    
Average Humidity 36    
Maximum Humidity 60    
Minimum Humidity 11    
Precipitation  
Precipitation 0.01 in 0.03 in 0.52 in (1951)
Month to date precipitation 0.05 0.34  
Year to date precipitation 5.73 7.12  
Sea Level Pressure  
Sea Level Pressure 29.71 in    
Wind  
Wind Speed 11 mph (SSW)    
Max Wind Speed 28 mph    
Max Gust Speed 40 mph    
Visibility 10 miles    
Events Rain    
T = Trace of Precipitation, MM = Missing Value Source: NWS Daily Summary

Daily Weather History Graph

Daily Weather History Graph

Search for Another Location

Airport or City:

Trip Planner

Search our weather history database for the weather conditions in past years. The results will help you decide how hot, cold, wet, or windy it might be!

Date:

Astronomy

Nov. 11, 2011 Rise Set
Actual Time 6:54 AM PST 4:41 PM PST
Civil Twilight 6:23 AM PST 5:12 PM PST
Nautical Twilight 5:48 AM PST 5:47 PM PST
Astronomical Twilight 5:14 AM PST 6:21 PM PST
Moon 5:11 PM PST (11/11) 7:51 AM PST (11/11)
Length of Visible Light 10h 49m
Length of Day
9h 47m
Full, 99% of the Moon is Illuminated
Nov 11
Full
Nov 18
Last Quarter
Nov 24
New
Dec 2
First Quarter
Dec 10
Full

Hourly Weather History & Observations

Time (PST) Temp. Windchill Dew Point Humidity Pressure Visibility Wind Dir Wind Speed Gust Speed Precip Events Conditions
12:56 AM 32.0 °F 28.7 °F 18.0 °F 56% 29.96 in 10.0 mi ESE 3.5 mph - N/A   Clear
1:56 AM 37.9 °F 33.5 °F 18.0 °F 45% 29.94 in 10.0 mi ESE 5.8 mph - N/A   Clear
2:56 AM 36.0 °F 29.0 °F 18.0 °F 48% 29.91 in 10.0 mi SSE 9.2 mph - N/A   Clear
3:56 AM 35.6 °F 32.8 °F 17.6 °F 48% 29.89 in 10.0 mi NE 3.5 mph - N/A   Clear
4:56 AM 30.0 °F 26.5 °F 16.0 °F 56% 29.90 in 10.0 mi East 3.5 mph - N/A   Clear
5:56 AM 35.6 °F 28.0 °F 15.8 °F 44% 29.85 in 10.0 mi SSE 10.4 mph - N/A   Clear
6:56 AM 39.9 °F 33.4 °F 15.1 °F 36% 29.85 in 10.0 mi SSE 10.4 mph - N/A   Clear
7:56 AM 42.1 °F 37.1 °F 15.1 °F 34% 29.85 in 10.0 mi SSE 8.1 mph - N/A   Clear
8:56 AM 46.0 °F 41.9 °F 15.1 °F 29% 29.82 in 10.0 mi SE 8.1 mph - N/A   Clear
9:56 AM 48.0 °F - 16.0 °F 28% 29.80 in 10.0 mi South 9.2 mph - N/A   Clear
10:40 AM 53.6 °F - 14.0 °F 21% 29.75 in 10.0 mi South 23.0 mph 32.2 mph N/A   Clear
10:56 AM 55.0 °F - 14.0 °F 20% 29.75 in 10.0 mi SSW 18.4 mph 27.6 mph N/A   Clear
11:56 AM 57.9 °F - 12.0 °F 16% 29.69 in 10.0 mi South 18.4 mph 26.5 mph N/A   Clear
12:56 PM 60.1 °F - 12.9 °F 16% 29.67 in 10.0 mi SW 15.0 mph 21.9 mph N/A   Clear
1:56 PM 60.8 °F - 6.8 °F 12% 29.65 in 10.0 mi West 16.1 mph 28.8 mph N/A   Clear
2:56 PM 55.9 °F - 15.1 °F 20% 29.63 in 10.0 mi West 9.2 mph 21.9 mph N/A   Clear
3:56 PM 55.9 °F - 15.1 °F 20% 29.60 in 10.0 mi SW 13.8 mph 25.3 mph N/A   Clear
4:56 PM 54.0 °F - 12.0 °F 19% 29.57 in 10.0 mi SW 27.6 mph 38.0 mph N/A   Clear
5:56 PM 51.1 °F - 12.0 °F 21% 29.57 in 10.0 mi WSW 10.4 mph - N/A   Clear
6:56 PM 48.9 °F - 14.0 °F 25% 29.54 in 10.0 mi South 10.4 mph 19.6 mph N/A   Mostly Cloudy
7:56 PM 48.9 °F - 18.0 °F 29% 29.53 in 10.0 mi West 10.4 mph 28.8 mph N/A   Partly Cloudy
8:56 PM 50.0 °F - 27.0 °F 41% 29.53 in 10.0 mi West 13.8 mph 34.5 mph N/A   Overcast
9:56 PM 46.9 °F - 34.0 °F 61% 29.57 in 10.0 mi NW 17.3 mph 24.2 mph 0.00 in   Overcast
10:37 PM 39.2 °F 30.2 °F 33.8 °F 81% 29.62 in 10.0 mi NW 17.3 mph 34.5 mph 0.00 in Rain Light Rain
10:56 PM 39.0 °F 30.6 °F 33.1 °F 79% 29.64 in 10.0 mi NW 15.0 mph 33.4 mph 0.01 in Rain Light Rain
11:08 PM 39.2 °F 30.5 °F 33.8 °F 81% 29.65 in 10.0 mi WNW 16.1 mph 26.5 mph 0.00 in Rain Light Rain
11:39 PM 35.6 °F 29.2 °F 33.8 °F 93% 29.68 in 10.0 mi ENE 8.1 mph - 0.00 in Rain Light Rain
11:43 PM 33.8 °F 29.6 °F 33.8 °F 100% 29.67 in 10.0 mi Variable 4.6 mph - 0.00 in Rain Light Rain
11:47 PM 35.6 °F 29.2 °F 33.8 °F 93% 29.68 in 10.0 mi North 8.1 mph - 0.00 in Rain Light Rain
11:56 PM 35.1 °F 32.2 °F 32.0 °F 89% 29.68 in 10.0 mi Variable 3.5 mph - 0.00 in   Overcast